Location: Bratislava
(48.1500°N, 17.1170°E)
Time: 09:21:46
(UTC+02:00)

OTV 5 (USA 277) - Visible Passes

Search period start: 23 September 2017 00:00
Search period end: 03 October 2017 00:00
Orbit: 404 x 417 km, 43.0° (Epoch: 07 September)

Date Brightness Start Highest point End Pass type
(mag) Time Alt. Az. Time Alt. Az. Time Alt. Az.
23 Sep ? 04:28:24 19° SE 04:28:24 19° SE 04:30:08 10° ESE visible
23 Sep ? 06:01:23 10° WSW 06:04:23 33° S 06:07:23 10° ESE visible
24 Sep ? 05:12:31 27° SSW 05:13:25 32° S 05:16:24 10° ESE visible
25 Sep ? 04:23:52 21° SE 04:23:52 21° SE 04:25:23 10° ESE visible
25 Sep ? 05:56:38 11° WSW 05:59:21 30° S 06:02:17 10° SE visible
26 Sep ? 05:08:01 31° SSW 05:08:24 32° S 05:11:23 10° ESE visible
27 Sep ? 04:19:27 17° ESE 04:19:27 17° ESE 04:20:26 10° ESE visible
27 Sep ? 05:52:12 13° WSW 05:54:17 22° SSW 05:56:54 10° SE visible
28 Sep ? 05:03:42 26° S 05:03:42 26° S 05:06:10 10° SE visible
29 Sep ? 04:15:16 10° SE 04:15:16 10° SE 04:15:20 10° SE visible
29 Sep ? 05:48:03 12° SW 05:49:06 14° SSW 05:50:54 10° S visible
30 Sep ? 04:59:43 14° S 04:59:43 14° S 05:00:33 10° SSE visible
